[[{"header":{"parameterUnit":"m.s-1","parameterCategory":1,"la1":30.2991,"la2":30.254,"lo1":-89.0895,"lo2":-89.0444,"dy":0.0017,"dx":0.0017,"nx":28,"ny":28,"refTime":"2025-04-07T03:00:00:Z","depth":0,"parameterNumber":2,"parameterNumberName":"U-component_of_WINDS"},"data":[0,0,0,0,0,0,0,0,0,0,0,0,0,0,0,0,0,0,0,0,0,0,0,0,0,0,0,0,0,0,0,0,0,0,0,0,0,0,0,0,0,0,0,0,0,0,0,0,0,0,0,0,0,0,0,0,0,0,1.3038,1.3039,0,1.313,1.3131,1.3132,1.3171,1.317,1.317,1.317,1.3267,1.3269,1.3272,0,0,0,0,0,0,0,0,0,0,0,0,0,1.2898,1.29,1.3038,1.3039,1.304,1.313,1.3131,1.3132,1.3171,1.317,1.317,1.317,1.3266,1.3269,1.3272,0,0,0,0,0,0,0,0,0,0,0,0,0,1.2971,1.2901,1.3038,1.307,1.3074,1.313,1.3131,1.3133,1.3171,1.317,1.317,1.317,1.3265,1.3269,1.3273,1.3304,0,0,1.3285,1.3287,0,0,0,0,0,0,0,0,1.2967,1.2976,1.3064,1.3068,1.3072,1.3138,1.3117,1.319,1.3171,1.3134,1.317,1.317,1.3224,1.3232,1.325,1.3308,1.3312,1.3286,1.3288,1.329,1.3291,0,0,0,0,0,0,0,1.2962,1.2973,1.3074,1.3065,1.307,1.3081,1.3091,1.3131,1.318,1.3137,1.314,1.315,1.3226,1.3246,1.3252,1.3314,1.3285,1.3289,1.3292,1.3293,1.3405,1.3405,0,0,0,0,0,0,1.2951,1.2968,1.3071,1.3077,1.3018,1.3084,1.3095,1.3117,1.3179,1.3188,1.315,1.3152,1.3239,1.3247,1.3256,1.3297,1.329,1.3294,1.3296,1.3404,1.3405,1.3405,0,0,0,0,0,0,1.2948,1.296,1.3068,1.3024,1.3038,1.3086,1.3111,1.3119,1.3139,1.3189,1.3198,1.3161,1.3239,1.325,1.3292,1.3301,1.3296,1.3299,1.3404,1.3404,1.3405,1.338,0,0,0,0,0,0,1.2944,1.2959,1.297,1.3023,1.304,1.3101,1.3112,1.3121,1.3145,1.3148,1.3202,1.321,1.3239,1.3285,1.3296,1.3307,1.3303,1.3403,1.3404,1.3405,1.338,1.338,1.3379,0,0,0,0,0,1.2939,1.2959,1.297,1.2983,1.3055,1.3101,1.3111,1.3144,1.3146,1.3158,1.3191,1.3209,1.3298,1.3289,1.3302,1.3314,1.3403,1.3404,1.3405,1.338,1.338,1.3379,0,0,0,0,0,0,1.2906,1.2967,1.298,1.3018,1.3054,1.3108,1.3124,1.3142,1.3179,1.318,1.3219,1.3231,1.327,1.3296,1.3285,1.3348,1.3352,1.3356,1.3329,1.3329,1.3329,1.3322,1.3306,0,0,0,0,0,1.2903,1.2935,1.2987,1.3016,1.3033,1.3076,1.3097,1.3119,1.3158,1.3174,1.321,1.3248,1.3285,1.3309,1.3346,1.3384,1.3397,1.3399,1.3399,1.3398,1.3401,1.3425,1.3426,1.3409,1.3409,1.3409,0,0,1.2898,1.2935,1.2953,1.301,1.3041,1.3073,1.3088,1.3122,1.3147,1.3179,1.3221,1.3249,1.3294,1.3335,1.3355,1.3358,1.3408,1.3399,1.3398,1.3402,1.3426,1.3427,1.3429,1.341,1.341,1.341,0,0,1.2905,1.2936,1.2964,1.2995,1.3041,1.3069,1.3076,1.3127,1.3147,1.3189,1.3214,1.3246,1.3308,1.334,1.3364,1.3385,1.3403,1.3396,1.3394,1.3417,1.3418,1.342,1.3428,1.3431,1.3399,1.3399,1.3399,0,1.2893,1.2942,1.2976,1.3009,1.3034,1.3065,1.3094,1.3123,1.3179,1.3196,1.3199,1.3279,1.3312,1.3361,1.3366,1.3384,1.3394,1.339,1.3415,1.3417,1.3419,1.3427,1.343,1.3398,1.3398,1.3398,1.3398,0,1.2926,1.296,1.2977,1.303,1.3057,1.3088,1.3128,1.3152,1.3172,1.32,1.3244,1.3285,1.3331,1.3344,1.3364,1.3397,1.3398,1.3407,1.3412,1.3419,1.3428,1.3431,1.3396,1.3396,1.3397,1.3397,0,0,1.2914,1.2986,1.2992,1.3017,1.3071,1.3098,1.3132,1.3176,1.3196,1.3234,1.3264,1.3317,1.3327,1.3354,1.3379,1.3399,1.3414,1.3406,1.3408,1.3407,1.3454,1.3446,1.3449,1.3426,1.3427,1.3427,1.345,0,1.2929,1.2988,1.302,1.3067,1.31,1.313,1.3159,1.3196,1.3224,1.3257,1.3288,1.3325,1.3335,1.3352,1.3373,1.3407,1.3424,1.3406,1.3455,1.3456,1.3443,1.3454,1.3445,1.3465,1.3454,1.3454,1.3455,0,1.2954,1.2991,1.304,1.3092,1.3107,1.3132,1.3176,1.3207,1.325,1.3269,1.3301,1.3325,1.3362,1.3365,1.3418,1.3405,1.3427,1.3447,1.3449,1.3455,1.3456,1.346,1.3472,1.3475,1.346,1.346,1.3459,0,1.2941,1.3004,1.3042,1.3062,1.3123,1.314,1.3166,1.3209,1.3234,1.3274,1.3291,1.3334,1.3358,1.3392,1.3427,1.3425,1.3477,1.3482,1.3495,1.3494,1.3505,1.3504,1.352,1.3518,1.3518,1.3518,1.3518,0,1.2954,1.2983,1.3037,1.306,1.3095,1.3132,1.3165,1.3194,1.3232,1.3263,1.3292,1.3321,1.3366,1.34,1.3429,1.3469,1.348,1.3497,1.3504,1.3495,1.3492,1.351,1.3509,1.3519,1.3519,1.3519,1.3519,0,1.2945,1.2982,1.3026,1.308,1.3094,1.3117,1.3164,1.3189,1.3219,1.3257,1.3268,1.3316,1.3358,1.3397,1.3453,1.3473,1.3514,1.3523,1.3499,1.3503,1.3514,1.3512,1.3542,1.3549,1.3542,1.3542,1.3542,0,1.2951,1.2974,1.3031,1.3053,1.3079,1.3114,1.314,1.3179,1.3205,1.3257,1.3276,1.332,1.3357,1.3424,1.3464,1.3508,1.3518,1.3526,1.3525,1.3515,1.3519,1.3517,1.3521,1.3525,1.3525,1.3525,1.3525,0,1.2958,1.2976,1.3011,1.3054,1.3084,1.312,1.3157,1.3174,1.322,1.3248,1.3291,1.332,1.3378,1.3422,1.3471,1.3499,1.352,1.3525,1.353,1.3521,1.3506,1.3515,1.3497,1.3524,1.3524,1.3524,1.3524,1.3524,1.2958,1.298,1.3024,1.3063,1.3095,1.3129,1.3155,1.3188,1.3225,1.3274,1.3295,1.3339,1.3384,1.3451,1.348,1.3516,1.352,1.3528,1.353,1.3531,1.353,1.35,1.3525,1.3525,1.3525,1.3525,1.3525,0,1.2966,1.2996,1.3032,1.3083,1.3114,1.3131,1.3173,1.3198,1.3236,1.3276,1.3312,1.3363,1.3406,1.345,1.3496,1.3516,1.3527,1.3527,1.3526,1.3533,1.3523,1.3514,1.3518,1.3518,1.3518,1.3518,1.3518,1.3518,1.2975,1.3014,1.3037,1.3093,1.3123,1.3166,1.3188,1.3221,1.3252,1.3307,1.3343,1.3371,1.3413,1.3463,1.3504,1.3516,1.3531,1.3529,1.3543,1.3533,1.3533,1.3534,1.3525,1.3532,1.3532,1.3551,1.3551,1.3551]},{"header":{"parameterUnit":"m.s-1","parameterCategory":1,"la1":30.2991,"la2":30.254,"lo1":-89.0895,"lo2":-89.0444,"dy":0.0017,"dx":0.0017,"nx":28,"ny":28,"refTime":"2025-04-07T03:00:00:Z","depth":0,"parameterNumber":3,"parameterNumberName":"V-component_of_WINDS"},"data":[0,0,0,0,0,0,0,0,0,0,0,0,0,0,0,0,0,0,0,0,0,0,0,0,0,0,0,0,0,0,0,0,0,0,0,0,0,0,0,0,0,0,0,0,0,0,0,0,0,0,0,0,0,0,0,0,0,0,-6.0555,-6.0558,0,-6.0774,-6.0776,-6.0779,-6.0726,-6.0722,-6.0718,-6.0714,-6.0934,-6.0944,-6.0954,0,0,0,0,0,0,0,0,0,0,0,0,0,-6.0087,-6.0096,-6.0555,-6.0558,-6.0561,-6.0773,-6.0776,-6.0779,-6.0727,-6.0722,-6.0717,-6.0712,-6.0931,-6.0943,-6.0954,0,0,0,0,0,0,0,0,0,0,0,0,0,-6.0297,-6.0099,-6.0555,-6.056,-6.0563,-6.0773,-6.0776,-6.078,-6.0728,-6.0722,-6.0716,-6.071,-6.0927,-6.0942,-6.0956,-6.1173,0,0,-6.1001,-6.1007,0,0,0,0,0,0,0,0,-6.0285,-6.0314,-6.0557,-6.056,-6.0564,-6.0716,-6.0692,-6.0912,-6.073,-6.0665,-6.0714,-6.0707,-6.0867,-6.0886,-6.0941,-6.1183,-6.1193,-6.1002,-6.1011,-6.1017,-6.1022,0,0,0,0,0,0,0,-6.027,-6.0304,-6.0641,-6.056,-6.0565,-6.055,-6.0573,-6.0734,-6.0799,-6.067,-6.0667,-6.0694,-6.0867,-6.0927,-6.0945,-6.1196,-6.1002,-6.1015,-6.1024,-6.103,-6.1623,-6.163,0,0,0,0,0,0,-6.0254,-6.0292,-6.0635,-6.0648,-6.0406,-6.0564,-6.0589,-6.0674,-6.0797,-6.081,-6.0699,-6.0691,-6.0905,-6.0928,-6.0953,-6.1213,-6.1017,-6.1031,-6.104,-6.1617,-6.1625,-6.1632,0,0,0,0,0,0,-6.0244,-6.0285,-6.0626,-6.047,-6.0512,-6.0578,-6.0674,-6.0681,-6.0741,-6.0818,-6.0829,-6.0748,-6.0901,-6.0932,-6.1118,-6.122,-6.1038,-6.1051,-6.1608,-6.1619,-6.1629,-6.1736,0,0,0,0,0,0,-6.0231,-6.0281,-6.0366,-6.0472,-6.052,-6.0789,-6.068,-6.069,-6.0766,-6.0758,-6.0867,-6.0879,-6.0898,-6.1096,-6.1133,-6.1237,-6.1063,-6.1599,-6.1613,-6.1625,-6.1724,-6.1749,-6.177,0,0,0,0,0,-6.0214,-6.0387,-6.0371,-6.0412,-6.0628,-6.0795,-6.0823,-6.0842,-6.0775,-6.0859,-6.0909,-6.0876,-6.1203,-6.1116,-6.1156,-6.1266,-6.1593,-6.1609,-6.1624,-6.1713,-6.1744,-6.177,0,0,0,0,0,0,-6.0292,-6.0402,-6.0384,-6.0597,-6.0687,-6.0786,-6.0894,-6.0874,-6.0985,-6.0971,-6.0989,-6.1014,-6.1203,-6.1253,-6.1154,-6.1481,-6.1388,-6.1413,-6.1442,-6.1472,-6.1494,-6.1478,-6.1075,0,0,0,0,0,-6.0333,-6.0462,-6.055,-6.073,-6.0776,-6.0827,-6.0901,-6.0907,-6.1001,-6.1039,-6.1102,-6.1193,-6.1315,-6.1396,-6.1514,-6.173,-6.1752,-6.1826,-6.1849,-6.1868,-6.1889,-6.2004,-6.2037,-6.1684,-6.1684,-6.1684,0,0,-6.0421,-6.0497,-6.0577,-6.0747,-6.0818,-6.0948,-6.086,-6.1002,-6.1098,-6.106,-6.1239,-6.1288,-6.1391,-6.1592,-6.1684,-6.1639,-6.1991,-6.1888,-6.1902,-6.1913,-6.2024,-6.2057,-6.2087,-6.1695,-6.1693,-6.1691,0,0,-6.0648,-6.0719,-6.0876,-6.0948,-6.1056,-6.1088,-6.1126,-6.1227,-6.1259,-6.1439,-6.1412,-6.1525,-6.1738,-6.1811,-6.1876,-6.2128,-6.2101,-6.2165,-6.2287,-6.24,-6.2427,-6.2452,-6.254,-6.2572,-6.2186,-6.2186,-6.2186,0,-6.0744,-6.0941,-6.0958,-6.1103,-6.1177,-6.1148,-6.1305,-6.1374,-6.1515,-6.1566,-6.1514,-6.1778,-6.1845,-6.2062,-6.2123,-6.2177,-6.2218,-6.2153,-6.2422,-6.2447,-6.247,-6.2554,-6.2588,-6.2193,-6.2192,-6.2191,-6.2191,0,-6.1052,-6.1189,-6.1301,-6.1438,-6.1525,-6.1675,-6.1713,-6.1799,-6.1797,-6.1834,-6.2016,-6.2095,-6.2227,-6.2279,-6.2279,-6.2496,-6.2464,-6.2418,-6.2325,-6.2511,-6.259,-6.2623,-6.2203,-6.2201,-6.2198,-6.2197,0,0,-6.1335,-6.1478,-6.1519,-6.1579,-6.1695,-6.1801,-6.1948,-6.2077,-6.2149,-6.2247,-6.2369,-6.2548,-6.2505,-6.2578,-6.2586,-6.2685,-6.2876,-6.2625,-6.2628,-6.2668,-6.3117,-6.3151,-6.3188,-6.2859,-6.2865,-6.287,-6.3108,0,-6.1571,-6.1833,-6.1851,-6.2086,-6.2211,-6.2184,-6.2312,-6.2395,-6.2434,-6.2544,-6.2584,-6.2711,-6.2645,-6.2689,-6.2785,-6.2832,-6.2966,-6.2815,-6.2971,-6.2976,-6.2946,-6.323,-6.3267,-6.3488,-6.3139,-6.3144,-6.3148,0,-6.1883,-6.1989,-6.2237,-6.2332,-6.2385,-6.2501,-6.2619,-6.2726,-6.2819,-6.2839,-6.292,-6.2913,-6.3062,-6.2963,-6.3167,-6.3064,-6.3128,-6.3161,-6.317,-6.3185,-6.3074,-6.3252,-6.356,-6.3592,-6.3197,-6.3194,-6.319,0,-6.2063,-6.2268,-6.2442,-6.2495,-6.2611,-6.2692,-6.2744,-6.2831,-6.2907,-6.301,-6.3059,-6.3178,-6.3243,-6.3334,-6.3358,-6.3284,-6.3561,-6.3464,-6.358,-6.3579,-6.364,-6.3636,-6.3961,-6.3682,-6.3682,-6.3681,-6.368,0,-6.2324,-6.2477,-6.2524,-6.2631,-6.28,-6.2818,-6.2984,-6.3031,-6.3108,-6.3222,-6.3205,-6.3312,-6.3338,-6.3449,-6.3469,-6.3633,-6.3663,-6.3682,-6.3685,-6.3684,-6.3681,-6.3726,-6.3711,-6.369,-6.3688,-6.3686,-6.3685,0,-6.2555,-6.2593,-6.2781,-6.2875,-6.2902,-6.3022,-6.3101,-6.3203,-6.3237,-6.3382,-6.3417,-6.3471,-6.3601,-6.3634,-6.3789,-6.3802,-6.3995,-6.3985,-6.3965,-6.3964,-6.4077,-6.4066,-6.4443,-6.4492,-6.4181,-6.4184,-6.4187,0,-6.2719,-6.2835,-6.2942,-6.3017,-6.3073,-6.3195,-6.3271,-6.3293,-6.3373,-6.3486,-6.3574,-6.3702,-6.3805,-6.4013,-6.4066,-6.4183,-6.4174,-6.4298,-6.4192,-6.4186,-6.4175,-6.4167,-6.4178,-6.4318,-6.4322,-6.4324,-6.4327,0,-6.3006,-6.3018,-6.3131,-6.325,-6.3342,-6.3436,-6.3526,-6.3589,-6.3622,-6.3713,-6.3846,-6.3926,-6.4083,-6.421,-6.4328,-6.4379,-6.4359,-6.436,-6.4392,-6.4392,-6.4375,-6.4384,-6.4019,-6.4351,-6.4349,-6.4347,-6.4345,-6.4344,-6.3208,-6.3309,-6.3399,-6.3524,-6.3594,-6.3678,-6.3777,-6.3824,-6.3935,-6.4066,-6.4071,-6.4215,-6.4302,-6.4458,-6.4516,-6.4627,-6.459,-6.4637,-6.4649,-6.4661,-6.467,-6.4357,-6.4649,-6.4648,-6.4648,-6.4647,-6.4647,0,-6.3493,-6.3549,-6.3663,-6.379,-6.3887,-6.386,-6.3957,-6.404,-6.4167,-6.4251,-6.4352,-6.4503,-6.4625,-6.4686,-6.4806,-6.4883,-6.4877,-6.4914,-6.4908,-6.492,-6.4698,-6.4657,-6.4917,-6.4917,-6.4917,-6.4917,-6.4917,-6.4917,-6.3653,-6.3822,-6.3845,-6.4047,-6.4101,-6.4243,-6.4301,-6.4377,-6.4443,-6.4613,-6.4715,-6.4754,-6.4827,-6.4952,-6.5062,-6.5076,-6.5121,-6.5163,-6.5173,-6.4964,-6.4936,-6.491,-6.4871,-6.5173,-6.5173,-6.5386,-6.5388,-6.5389]}]]